Orbital Elements at Epoch 2459200.5 (2020-Dec-17.0) TDB
Reference: JPL 37 (heliocentric ecliptic J2000)
Element | Value | Uncertainty (1-sigma) | Units |
e | .04704911269778284 | 4.0947e-08 | |
a | 2.899548006362143 | 1.3147e-08 | au |
q | 2.763126845438179 | 1.1791e-07 | au |
i | 2.805474552172885 | 4.7375e-06 | deg |
node | 144.7784619362878 | 7.7863e-05 | deg |
peri | 175.2473244716168 | 8.9188e-05 | deg |
M | 198.0844550593341 | 4.4516e-05 | deg |
tp | 2460011.610320288087 (2023-Mar-08.11032029) | 0.00022405 | TDB |
period | 1803.407544412829 4.94 | 1.2265e-05 3.358e-08 | d yr |
n | .1996220993503786 | 1.3576e-09 | deg/d |
Q | 3.035969167286107 | 1.3765e-08 | au |
|
| | Orbit Determination Parameters
Additional Information
|